| time (UTC) | temp F | wind direction | speed knots | gust knots | rain 1hr in | rain 24hr in | rain mn in | humidity % | barometer mb |
| 20260506060535 | 75 | 116 | 3.5 | 8.7 | 0.00 | 0.00 | 0.00 | 77 | 1015.7 |
| 20260506051001 | 76 | 133 | 3.5 | 7.8 | 0.00 | 0.00 | 0.00 | 74 | 1015.6 |
| 20260506050500 | 76 | 135 | 3.5 | 9.6 | 0.00 | 0.00 | 0.00 | 74 | 1015.6 |
| 20260506045001 | 77 | 122 | 4.3 | 10.4 | 0.00 | 0.00 | 0.00 | 74 | 1015.6 |
| 20260506044445 | 77 | 120 | 3.5 | 11.3 | 0.00 | 0.00 | 0.00 | 74 | 1015.6 |
| 20260506043946 | 77 | 108 | 3.5 | 7.8 | 0.00 | 0.00 | 0.00 | 74 | 1015.6 |
| 20260506043419 | 77 | 122 | 3.5 | 8.7 | 0.00 | 0.00 | 0.00 | 74 | 1015.6 |
| 20260506042920 | 77 | 117 | 3.5 | 8.7 | 0.00 | 0.00 | 0.00 | 73 | 1015.6 |
| 20260506042419 | 77 | 130 | 3.5 | 11.3 | 0.00 | 0.00 | 0.00 | 74 | 1015.6 |
| 20260506041915 | 77 | 109 | 4.3 | 11.3 | 0.00 | 0.00 | 0.00 | 73 | 1015.6 |
| 20260506041415 | 77 | 164 | 4.3 | 7.8 | 0.00 | 0.00 | 0.00 | 74 | 1015.6 |
| 20260506040928 | 76 | 119 | 4.3 | 9.6 | 0.00 | 0.00 | 0.00 | 75 | 1015.6 |
| 20260506040414 | 76 | 199 | 5.2 | 9.6 | 0.00 | 0.00 | 0.00 | 75 | 1015.7 |
| 20260506035911 | 76 | 123 | 5.2 | 9.6 | 0.00 | 0.00 | 0.00 | 75 | 1015.7 |
| 20260506035411 | 76 | 86 | 5.2 | 9.6 | 0.00 | 0.00 | 0.00 | 75 | 1015.8 |
| 20260506034907 | 76 | 130 | 5.2 | 9.6 | 0.00 | 0.00 | 0.00 | 73 | 1015.7 |
| 20260506034406 | 76 | 124 | 3.5 | 9.6 | 0.00 | 0.00 | 0.00 | 74 | 1015.8 |
| 20260506033904 | 77 | 122 | 2.6 | 7.0 | 0.00 | 0.00 | 0.00 | 73 | 1015.8 |
| 20260506033404 | 77 | 146 | 2.6 | 7.0 | 0.00 | 0.00 | 0.00 | 73 | 1015.8 |
| 20260506032900 | 77 | 118 | 2.6 | 7.0 | 0.00 | 0.00 | 0.00 | 73 | 1015.9 |
| 20260506032403 | 77 | 124 | 2.6 | 7.0 | 0.00 | 0.00 | 0.00 | 73 | 1015.9 |
| 20260506031854 | 77 | 118 | 3.5 | 7.0 | 0.00 | 0.00 | 0.00 | 73 | 1016.0 |
| 20260506031351 | 77 | 128 | 3.5 | 9.6 | 0.00 | 0.00 | 0.00 | 72 | 1016.0 |
| 20260506030850 | 77 | 137 | 3.5 | 9.6 | 0.00 | 0.00 | 0.00 | 71 | 1016.0 |
| 20260506030347 | 78 | 129 | 4.3 | 9.6 | 0.00 | 0.00 | 0.00 | 70 | 1016.0 |
| 20260506025846 | 78 | 161 | 3.5 | 9.6 | 0.00 | 0.00 | 0.00 | 69 | 1016.0 |
| 20260506025345 | 79 | 133 | 2.6 | 8.7 | 0.00 | 0.00 | 0.00 | 69 | 1016.0 |
| 20260506025102 | 79 | 112 | 2.6 | 7.8 | 0.00 | 0.00 | 0.00 | 69 | 1016.0 |
| 20260506024345 | 79 | 144 | 3.5 | 7.8 | 0.00 | 0.00 | 0.00 | 70 | 1016.0 |
| 20260506023835 | 79 | 141 | 4.3 | 10.4 | 0.00 | 0.00 | 0.00 | 70 | 1016.1 |
| 20260506023557 | 78 | 124 | 4.3 | 10.4 | 0.00 | 0.00 | 0.00 | 71 | 1016.1 |
| 20260506022834 | 78 | 132 | 3.5 | 7.8 | 0.00 | 0.00 | 0.00 | 73 | 1016.1 |
| 20260506022336 | 77 | 128 | 2.6 | 7.0 | 0.00 | 0.00 | 0.00 | 73 | 1016.2 |
| 20260506021807 | 76 | 137 | 4.3 | 9.6 | 0.00 | 0.00 | 0.00 | 73 | 1016.3 |
| 20260506021251 | 77 | 124 | 3.5 | 9.6 | 0.00 | 0.00 | 0.00 | 73 | 1016.5 |
| 20260506020754 | 77 | 123 | 2.6 | 7.0 | 0.00 | 0.00 | 0.00 | 73 | 1016.6 |
| 20260506020446 | 77 | 144 | 2.6 | 7.0 | 0.00 | 0.00 | 0.00 | 72 | 1016.7 |
| 20260506015659 | 78 | 108 | 2.6 | 7.8 | 0.00 | 0.00 | 0.00 | 73 | 1016.7 |
| 20260506015135 | 78 | 175 | 2.6 | 7.8 | 0.00 | 0.00 | 0.00 | 72 | 1016.8 |
| 20260506014607 | 78 | 125 | 3.5 | 7.8 | 0.00 | 0.00 | 0.00 | 71 | 1016.8 |
| 20260506014043 | 79 | 109 | 3.5 | 8.7 | 0.00 | 0.00 | 0.00 | 70 | 1016.9 |
| 20260506013523 | 79 | 126 | 2.6 | 8.7 | 0.00 | 0.00 | 0.00 | 70 | 1016.9 |
| 20260506013247 | 79 | 122 | 2.6 | 7.0 | 0.00 | 0.00 | 0.00 | 71 | 1016.8 |
| 20260506012456 | 78 | 119 | 2.6 | 6.1 | 0.00 | 0.00 | 0.00 | 71 | 1016.8 |
| 20260506011929 | 78 | 143 | 1.7 | 4.3 | 0.00 | 0.00 | 0.00 | 72 | 1017.0 |
| 20260506011401 | 78 | 129 | 1.7 | 12.2 | 0.00 | 0.00 | 0.00 | 72 | 1017.0 |
| 20260506011058 | 78 | 112 | 3.5 | 12.2 | 0.00 | 0.00 | 0.00 | 72 | 1017.1 |
| 20260506010307 | 78 | 126 | 4.3 | 12.2 | 0.00 | 0.00 | 0.00 | 72 | 1017.2 |
| 20260506005741 | 78 | 112 | 3.5 | 8.7 | 0.00 | 0.00 | 0.00 | 73 | 1017.2 |
| 20260506005446 | 78 | 99 | 2.6 | 7.8 | 0.00 | 0.00 | 0.00 | 72 | 1017.3 |
| 20260506004655 | 78 | 93 | 2.6 | 7.0 | 0.00 | 0.00 | 0.00 | 72 | 1017.5 |
| 20260506004129 | 78 | 112 | 2.6 | 8.7 | 0.00 | 0.00 | 0.00 | 72 | 1017.4 |
| 20260506003604 | 78 | 139 | 2.6 | 8.7 | 0.00 | 0.00 | 0.00 | 72 | 1017.4 |
| 20260506003040 | 78 | 108 | 3.5 | 8.7 | 0.00 | 0.00 | 0.00 | 71 | 1017.4 |
| 20260506002517 | 78 | 224 | 2.6 | 8.7 | 0.00 | 0.00 | 0.00 | 72 | 1017.5 |
| 20260506001951 | 78 | 114 | 2.6 | 7.8 | 0.00 | 0.00 | 0.00 | 74 | 1017.5 |
| 20260506001647 | 78 | 138 | 2.6 | 7.8 | 0.00 | 0.00 | 0.00 | 74 | 1017.5 |
| 20260506000859 | 78 | 139 | 3.5 | 7.8 | 0.00 | 0.00 | 0.00 | 74 | 1017.5 |
| 20260506000332 | 78 | 107 | 2.6 | 7.8 | 0.00 | 0.00 | 0.00 | 75 | 1017.5 |
| 20260505235821 | 77 | 196 | 2.6 | 7.0 | 0.00 | 0.00 | 0.00 | 77 | 1017.6 |
| 20260505235542 | 77 | 195 | 1.7 | 5.2 | 0.00 | 0.00 | 0.00 | 78 | 1017.6 |
| 20260505234822 | 76 | 113 | 2.6 | 7.0 | 0.00 | 0.00 | 0.00 | 79 | 1017.7 |
| 20260505234541 | 76 | 204 | 2.6 | 7.0 | 0.00 | 0.00 | 0.00 | 79 | 1017.7 |
| 20260505234039 | 76 | 190 | 2.6 | 7.0 | 0.00 | 0.00 | 0.00 | 80 | 1017.8 |
| 20260505233317 | 75 | 116 | 2.6 | 7.0 | 0.00 | 0.00 | 0.00 | 80 | 1017.8 |
| 20260505232814 | 75 | 130 | 2.6 | 7.0 | 0.00 | 0.00 | 0.00 | 80 | 1017.9 |
| 20260505232315 | 75 | 110 | 3.5 | 7.0 | 0.00 | 0.00 | 0.00 | 80 | 1017.9 |
| 20260505231812 | 75 | 126 | 2.6 | 7.0 | 0.00 | 0.00 | 0.00 | 81 | 1017.8 |
| 20260505231313 | 75 | 108 | 1.7 | 7.0 | 0.00 | 0.00 | 0.00 | 83 | 1017.9 |
| 20260505230813 | 74 | 152 | 1.7 | 7.0 | 0.00 | 0.00 | 0.00 | 84 | 1017.9 |
| 20260505230307 | 74 | 113 | 1.7 | 7.0 | 0.00 | 0.00 | 0.00 | 85 | 1017.9 |
| 20260505225804 | 73 | 203 | 1.7 | 5.2 | 0.00 | 0.00 | 0.00 | 87 | 1017.9 |
| 20260505225306 | 73 | 195 | 2.6 | 5.2 | 0.00 | 0.00 | 0.00 | 88 | 1017.9 |
| 20260505224805 | 72 | 191 | 2.6 | 5.2 | 0.00 | 0.00 | 0.00 | 89 | 1018.0 |
| 20260505224304 | 71 | 212 | 2.6 | 5.2 | 0.00 | 0.00 | 0.00 | 91 | 1017.9 |
| 20260505223817 | 71 | 204 | 2.6 | 4.3 | 0.00 | 0.00 | 0.00 | 92 | 1018.0 |
| 20260505223306 | 70 | 217 | 2.6 | 4.3 | 0.00 | 0.00 | 0.00 | 93 | 1018.0 |
| 20260505222803 | 70 | 233 | 1.7 | 4.3 | 0.00 | 0.00 | 0.00 | 93 | 1017.9 |
| 20260505222527 | 69 | 261 | 1.7 | 4.3 | 0.00 | 0.00 | 0.00 | 94 | 1017.9 |
| 20260505221805 | 69 | 180 | 1.7 | 4.3 | 0.00 | 0.00 | 0.00 | 94 | 1017.8 |
| 20260505221235 | 69 | 180 | 1.7 | 5.2 | 0.00 | 0.00 | 0.00 | 94 | 1017.8 |
| 20260505220713 | 68 | 228 | 1.7 | 4.3 | 0.00 | 0.00 | 0.00 | 94 | 1017.9 |
| 20260505220217 | 68 | 221 | 1.7 | 4.3 | 0.00 | 0.00 | 0.00 | 95 | 1017.9 |
| 20260505215645 | 68 | 238 | 0.9 | 4.3 | 0.00 | 0.00 | 0.00 | 94 | 1017.8 |
| 20260505215150 | 68 | 206 | 0.9 | 3.5 | 0.00 | 0.00 | 0.00 | 94 | 1017.8 |
| 20260505214637 | 67 | 206 | 1.7 | 4.3 | 0.00 | 0.00 | 0.00 | 95 | 1017.8 |
| 20260505214133 | 67 | 201 | 0.9 | 4.3 | 0.00 | 0.00 | 0.00 | 94 | 1017.8 |
| 20260505213633 | 67 | 212 | 0.9 | 3.5 | 0.00 | 0.00 | 0.00 | 94 | 1017.7 |
| 20260505213353 | 67 | 212 | 0.9 | 3.5 | 0.00 | 0.00 | 0.00 | 95 | 1017.7 |
| 20260505212854 | 67 | 249 | 0.9 | 3.5 | 0.00 | 0.00 | 0.00 | 94 | 1017.6 |
| 20260505212357 | 66 | 249 | 0.9 | 3.5 | 0.00 | 0.00 | 0.00 | 94 | 1017.6 |
| 20260505211626 | 66 | 249 | 0.9 | 3.5 | 0.00 | 0.00 | 0.00 | 94 | 1017.6 |
| 20260505211127 | 66 | 249 | 0.9 | 2.6 | 0.00 | 0.00 | 0.00 | 94 | 1017.5 |
| 20260505210626 | 66 | 249 | 0.9 | 2.6 | 0.00 | 0.00 | 0.00 | 94 | 1017.3 |
| 20260505210127 | 66 | 249 | 0.9 | 2.6 | 0.00 | 0.00 | 0.00 | 94 | 1017.3 |
| 20260505205845 | 65 | 249 | 0.0 | 0.0 | 0.00 | 0.00 | 0.00 | 94 | 1017.3 |
| 20260505205122 | 66 | 249 | 0.0 | 0.0 | 0.00 | 0.00 | 0.00 | 94 | 1017.1 |
| 20260505204622 | 66 | 249 | 0.0 | 0.0 | 0.00 | 0.00 | 0.00 | 94 | 1017.1 |
| 20260505204121 | 66 | 249 | 0.0 | 0.0 | 0.00 | 0.00 | 0.00 | 94 | 1017.1 |
| 20260505203623 | 66 | 250 | 0.0 | 0.0 | 0.00 | 0.00 | 0.00 | 94 | 1016.9 |
| 20260505203106 | 66 | 249 | 0.0 | 0.0 | 0.00 | 0.00 | 0.00 | 94 | 1016.9 |
| 20260505202606 | 66 | 249 | 0.0 | 0.0 | 0.00 | 0.00 | 0.00 | 94 | 1016.9 |
| 20260505202100 | 66 | 249 | 0.0 | 0.0 | 0.00 | 0.00 | 0.00 | 94 | 1016.9 |
| 20260505201828 | 66 | 249 | 0.0 | 0.0 | 0.00 | 0.00 | 0.00 | 94 | 1016.8 |
| 20260505201059 | 66 | 250 | 0.0 | 0.0 | 0.00 | 0.00 | 0.00 | 94 | 1016.9 |
| 20260505200557 | 66 | 249 | 0.0 | 0.0 | 0.00 | 0.00 | 0.00 | 94 | 1016.8 |
| 20260505200109 | 66 | 249 | 0.0 | 1.7 | 0.00 | 0.00 | 0.00 | 94 | 1016.8 |
| 20260505195557 | 66 | 249 | 0.0 | 1.7 | 0.00 | 0.00 | 0.00 | 94 | 1016.7 |
| 20260505195055 | 66 | 249 | 0.0 | 1.7 | 0.00 | 0.00 | 0.00 | 94 | 1016.7 |
| 20260505194555 | 67 | 250 | 0.9 | 2.6 | 0.00 | 0.00 | 0.00 | 94 | 1016.6 |
| 20260505194058 | 67 | 249 | 0.0 | 2.6 | 0.00 | 0.00 | 0.00 | 94 | 1016.6 |
| 20260505193549 | 67 | 249 | 0.0 | 2.6 | 0.00 | 0.00 | 0.00 | 94 | 1016.6 |
| 20260505193050 | 67 | 249 | 0.0 | 2.6 | 0.00 | 0.00 | 0.00 | 94 | 1016.6 |
| 20260505192545 | 67 | 249 | 0.0 | 2.6 | 0.00 | 0.00 | 0.00 | 94 | 1016.6 |
| 20260505192050 | 67 | 249 | 0.0 | 2.6 | 0.00 | 0.00 | 0.00 | 94 | 1016.7 |
| 20260505191522 | 67 | 255 | 0.0 | 1.7 | 0.00 | 0.01 | 0.00 | 94 | 1016.6 |
| 20260505191022 | 67 | 239 | 0.0 | 0.0 | 0.00 | 0.01 | 0.00 | 94 | 1016.6 |
| 20260505190520 | 67 | 239 | 0.0 | 0.9 | 0.00 | 0.01 | 0.00 | 94 | 1016.6 |
| 20260505190247 | 67 | 239 | 0.0 | 0.9 | 0.00 | 0.01 | 0.00 | 94 | 1016.6 |
| 20260505185515 | 67 | 239 | 0.0 | 0.9 | 0.00 | 0.01 | 0.00 | 94 | 1016.6 |
| 20260505185014 | 67 | 239 | 0.0 | 1.7 | 0.00 | 0.01 | 0.00 | 94 | 1016.5 |
| 20260505184511 | 67 | 239 | 0.0 | 1.7 | 0.00 | 0.01 | 0.00 | 94 | 1016.5 |
| 20260505184011 | 67 | 239 | 0.0 | 2.6 | 0.00 | 0.01 | 0.00 | 94 | 1016.2 |
| 20260505183507 | 67 | 239 | 0.0 | 2.6 | 0.00 | 0.01 | 0.00 | 94 | 1016.2 |
| 20260505183021 | 67 | 239 | 0.0 | 1.7 | 0.00 | 0.01 | 0.00 | 94 | 1016.2 |
| 20260505182959 | 67 | 239 | 0.0 | 0.0 | 0.00 | 0.01 | 0.00 | 94 | 1016.2 |
| 20260505182006 | 67 | 239 | 0.0 | 0.0 | 0.00 | 0.01 | 0.00 | 94 | 1016.2 |
| 20260505181517 | 67 | 239 | 0.0 | 0.0 | 0.00 | 0.01 | 0.00 | 94 | 1016.1 |
| 20260505180958 | 67 | 239 | 0.0 | 0.0 | 0.00 | 0.01 | 0.00 | 94 | 1016.0 |
| 20260505180455 | 67 | 239 | 0.0 | 0.0 | 0.00 | 0.01 | 0.00 | 94 | 1016.0 |
| 20260505175955 | 67 | 239 | 0.0 | 0.9 | 0.00 | 0.01 | 0.00 | 94 | 1016.0 |
| 20260505175455 | 67 | 239 | 0.0 | 0.9 | 0.00 | 0.01 | 0.00 | 94 | 1016.1 |
| 20260505174935 | 67 | 239 | 0.0 | 0.0 | 0.00 | 0.01 | 0.00 | 94 | 1016.0 |
| 20260505174434 | 67 | 239 | 0.0 | 0.0 | 0.00 | 0.01 | 0.00 | 94 | 1016.1 |
| 20260505173912 | 67 | 239 | 0.0 | 0.0 | 0.00 | 0.01 | 0.00 | 93 | 1016.2 |
| 20260505173635 | 67 | 239 | 0.0 | 0.0 | 0.00 | 0.01 | 0.00 | 93 | 1016.2 |
| 20260505172907 | 67 | 239 | 0.0 | 1.7 | 0.00 | 0.01 | 0.00 | 93 | 1016.2 |
| 20260505172405 | 67 | 239 | 0.0 | 1.7 | 0.00 | 0.01 | 0.00 | 93 | 1016.2 |
| 20260505171902 | 67 | 239 | 0.0 | 1.7 | 0.00 | 0.01 | 0.00 | 93 | 1016.2 |
| 20260505171400 | 67 | 239 | 0.0 | 1.7 | 0.00 | 0.01 | 0.00 | 93 | 1016.3 |
| 20260505170911 | 67 | 239 | 0.0 | 0.0 | 0.00 | 0.01 | 0.00 | 93 | 1016.5 |
| 20260505170411 | 67 | 239 | 0.0 | 0.0 | 0.00 | 0.01 | 0.00 | 93 | 1016.6 |
| 20260505165854 | 67 | 239 | 0.0 | 3.5 | 0.00 | 0.01 | 0.00 | 93 | 1016.6 |
| 20260505165354 | 67 | 239 | 0.9 | 3.5 | 0.00 | 0.01 | 0.00 | 93 | 1016.6 |
| 20260505165110 | 67 | 239 | 0.9 | 3.5 | 0.00 | 0.01 | 0.00 | 93 | 1016.6 |
| 20260505164345 | 67 | 239 | 0.9 | 3.5 | 0.00 | 0.01 | 0.00 | 93 | 1016.6 |
| 20260505163842 | 67 | 175 | 0.0 | 0.0 | 0.00 | 0.01 | 0.00 | 93 | 1016.6 |
| 20260505163601 | 67 | 175 | 0.0 | 0.0 | 0.00 | 0.01 | 0.00 | 93 | 1016.5 |
| 20260505162829 | 67 | 175 | 0.0 | 0.0 | 0.00 | 0.01 | 0.00 | 93 | 1016.5 |
| 20260505162547 | 67 | 175 | 0.0 | 0.0 | 0.00 | 0.01 | 0.00 | 93 | 1016.6 |
| 20260505161800 | 67 | 175 | 0.0 | 0.0 | 0.00 | 0.01 | 0.00 | 93 | 1016.6 |
| 20260505161254 | 67 | 175 | 0.0 | 0.0 | 0.00 | 0.01 | 0.00 | 93 | 1016.7 |
| 20260505160752 | 67 | 175 | 0.0 | 1.7 | 0.00 | 0.01 | 0.00 | 93 | 1016.8 |
| 20260505160524 | 67 | 175 | 0.0 | 1.7 | 0.00 | 0.01 | 0.00 | 93 | 1016.8 |
| 20260505153234 | 68 | 175 | 0.0 | 0.9 | 0.00 | 0.01 | 0.00 | 93 | 1016.9 |
| 20260505152732 | 68 | 175 | 0.0 | 1.7 | 0.00 | 0.01 | 0.00 | 93 | 1017.1 |
| 20260505152231 | 68 | 175 | 0.0 | 1.7 | 0.00 | 0.01 | 0.00 | 93 | 1017.1 |
| 20260505151724 | 68 | 175 | 0.0 | 2.6 | 0.00 | 0.01 | 0.00 | 93 | 1017.1 |
| 20260505151222 | 68 | 175 | 0.9 | 2.6 | 0.00 | 0.01 | 0.00 | 93 | 1017.1 |
| 20260505150720 | 68 | 175 | 0.9 | 4.3 | 0.00 | 0.01 | 0.00 | 93 | 1017.0 |
| 20260505150449 | 68 | 160 | 0.9 | 4.3 | 0.00 | 0.01 | 0.00 | 94 | 1017.0 |
| 20260505140157 | 66 | 147 | 0.0 | 0.0 | 0.00 | 0.01 | 0.00 | 92 | 1017.5 |
| 20260505124952 | 67 | 147 | 0.0 | 0.0 | 0.00 | 0.01 | 0.01 | 91 | 1017.5 |
| 20260505124504 | 67 | 147 | 0.0 | 0.0 | 0.00 | 0.01 | 0.01 | 91 | 1017.4 |
| 20260505123950 | 67 | 147 | 0.0 | 0.0 | 0.00 | 0.01 | 0.01 | 91 | 1017.2 |
| 20260505123447 | 67 | 147 | 0.0 | 0.0 | 0.00 | 0.01 | 0.01 | 91 | 1017.4 |
| 20260505122945 | 67 | 147 | 0.0 | 0.0 | 0.00 | 0.01 | 0.01 | 91 | 1017.4 |
| 20260505122441 | 67 | 147 | 0.0 | 0.0 | 0.00 | 0.01 | 0.01 | 91 | 1017.4 |
| 20260505121939 | 67 | 147 | 0.0 | 0.0 | 0.00 | 0.01 | 0.01 | 91 | 1017.6 |
| 20260505121702 | 67 | 147 | 0.0 | 0.0 | 0.00 | 0.01 | 0.01 | 91 | 1017.6 |
| 20260505120938 | 67 | 147 | 0.0 | 0.0 | 0.00 | 0.01 | 0.01 | 91 | 1017.4 |
| 20260505120411 | 67 | 147 | 0.0 | 0.0 | 0.00 | 0.01 | 0.01 | 91 | 1017.4 |
| 20260505115904 | 67 | 147 | 0.0 | 0.0 | 0.00 | 0.01 | 0.01 | 91 | 1017.3 |
| 20260505115634 | 67 | 147 | 0.0 | 0.0 | 0.00 | 0.01 | 0.01 | 91 | 1017.4 |
| 20260505115127 | 67 | 147 | 0.0 | 0.0 | 0.00 | 0.01 | 0.01 | 90 | 1017.5 |
| 20260505114403 | 67 | 147 | 0.0 | 0.0 | 0.00 | 0.01 | 0.01 | 90 | 1017.6 |
| 20260505113904 | 67 | 147 | 0.0 | 0.0 | 0.00 | 0.01 | 0.01 | 90 | 1017.6 |
| 20260505113358 | 68 | 147 | 0.0 | 0.0 | 0.00 | 0.01 | 0.01 | 90 | 1017.6 |
| 20260505112858 | 68 | 147 | 0.0 | 0.0 | 0.00 | 0.01 | 0.01 | 90 | 1017.7 |
| 20260505112615 | 68 | 147 | 0.0 | 1.7 | 0.00 | 0.01 | 0.01 | 90 | 1017.7 |
| 20260505111854 | 68 | 147 | 0.0 | 1.7 | 0.00 | 0.01 | 0.01 | 90 | 1017.8 |
| 20260505111351 | 68 | 147 | 0.0 | 1.7 | 0.00 | 0.01 | 0.01 | 90 | 1017.7 |
| 20260505110854 | 68 | 147 | 0.0 | 0.0 | 0.00 | 0.01 | 0.01 | 90 | 1017.6 |
| 20260505110351 | 68 | 147 | 0.0 | 0.0 | 0.00 | 0.01 | 0.01 | 90 | 1017.7 |
| 20260505102125 | 69 | 147 | 0.0 | 1.7 | 0.00 | 0.01 | 0.01 | 89 | 1017.5 |
| 20260505101609 | 69 | 147 | 0.9 | 1.7 | 0.00 | 0.01 | 0.01 | 89 | 1017.3 |
| 20260505101111 | 69 | 147 | 0.0 | 1.7 | 0.00 | 0.01 | 0.01 | 88 | 1017.2 |
| 20260505100544 | 69 | 147 | 0.0 | 2.6 | 0.00 | 0.01 | 0.01 | 88 | 1017.2 |
| 20260505100030 | 69 | 147 | 0.0 | 2.6 | 0.00 | 0.01 | 0.01 | 88 | 1017.1 |
| 20260505095527 | 69 | 147 | 0.9 | 3.5 | 0.00 | 0.01 | 0.01 | 88 | 1017.0 |
| 20260505095000 | 69 | 147 | 0.0 | 3.5 | 0.00 | 0.01 | 0.01 | 87 | 1017.1 |
| 20260505094458 | 70 | 82 | 0.0 | 0.0 | 0.00 | 0.01 | 0.01 | 87 | 1017.2 |
| 20260505093958 | 70 | 82 | 0.0 | 0.0 | 0.00 | 0.01 | 0.01 | 86 | 1017.3 |
| 20260505093715 | 70 | 82 | 0.0 | 0.0 | 0.00 | 0.01 | 0.01 | 86 | 1017.3 |
| 20260505092954 | 70 | 82 | 0.0 | 0.0 | 0.00 | 0.01 | 0.01 | 86 | 1017.2 |
| 20260505092453 | 70 | 82 | 0.0 | 0.0 | 0.00 | 0.01 | 0.01 | 86 | 1017.1 |
| 20260505091950 | 70 | 82 | 0.0 | 0.0 | 0.00 | 0.01 | 0.01 | 86 | 1017.1 |
| 20260505091449 | 70 | 82 | 0.0 | 0.0 | 0.00 | 0.01 | 0.01 | 86 | 1017.0 |
| 20260505090952 | 71 | 82 | 0.0 | 0.0 | 0.00 | 0.01 | 0.01 | 85 | 1017.1 |
| 20260505090448 | 71 | 82 | 0.0 | 0.0 | 0.00 | 0.01 | 0.01 | 86 | 1017.0 |
| 20260505085946 | 71 | 82 | 0.0 | 0.0 | 0.00 | 0.01 | 0.01 | 85 | 1017.0 |
| 20260505085446 | 71 | 82 | 0.0 | 0.0 | 0.00 | 0.01 | 0.01 | 85 | 1016.9 |
| 20260505084940 | 71 | 82 | 0.0 | 0.0 | 0.00 | 0.01 | 0.01 | 85 | 1016.9 |
| 20260505084658 | 71 | 82 | 0.0 | 0.0 | 0.00 | 0.01 | 0.01 | 84 | 1016.7 |
| 20260505083934 | 71 | 82 | 0.0 | 0.0 | 0.00 | 0.01 | 0.01 | 85 | 1016.6 |
| 20260505083434 | 72 | 82 | 0.0 | 0.0 | 0.00 | 0.01 | 0.01 | 84 | 1016.6 |
| 20260505082932 | 72 | 82 | 0.0 | 0.0 | 0.00 | 0.01 | 0.01 | 84 | 1016.5 |
| 20260505082433 | 72 | 82 | 0.0 | 0.0 | 0.00 | 0.01 | 0.01 | 84 | 1016.1 |
| 20260505082136 | 72 | 82 | 0.0 | 0.0 | 0.00 | 0.01 | 0.01 | 84 | 1016.0 |
| 20260505081417 | 72 | 82 | 0.0 | 0.0 | 0.00 | 0.01 | 0.01 | 83 | 1016.1 |
| 20260505081106 | 72 | 82 | 0.0 | 0.0 | 0.00 | 0.01 | 0.01 | 83 | 1015.8 |
| 20260505080348 | 72 | 82 | 0.0 | 0.0 | 0.00 | 0.01 | 0.01 | 83 | 1015.7 |
| 20260505075844 | 73 | 82 | 0.0 | 0.0 | 0.00 | 0.01 | 0.01 | 82 | 1015.8 |
| 20260505075345 | 73 | 82 | 0.0 | 0.0 | 0.00 | 0.01 | 0.01 | 82 | 1015.8 |
| 20260505074842 | 73 | 82 | 0.0 | 0.0 | 0.00 | 0.01 | 0.01 | 82 | 1015.9 |
| 20260505074340 | 73 | 82 | 0.0 | 0.0 | 0.00 | 0.01 | 0.01 | 82 | 1015.8 |
| 20260505073838 | 73 | 82 | 0.0 | 0.0 | 0.00 | 0.01 | 0.01 | 82 | 1015.8 |
| 20260505073336 | 73 | 82 | 0.0 | 0.0 | 0.00 | 0.01 | 0.01 | 82 | 1015.7 |
| 20260505072833 | 73 | 82 | 0.0 | 1.7 | 0.00 | 0.01 | 0.01 | 82 | 1015.7 |
| 20260505072332 | 74 | 82 | 0.0 | 1.7 | 0.00 | 0.01 | 0.01 | 82 | 1015.5 |
| 20260505071832 | 74 | 82 | 0.0 | 1.7 | 0.00 | 0.01 | 0.01 | 82 | 1015.5 |
| 20260505071328 | 74 | 82 | 0.0 | 1.7 | 0.00 | 0.01 | 0.01 | 82 | 1015.4 |
| 20260505070826 | 74 | 82 | 0.0 | 1.7 | 0.00 | 0.01 | 0.01 | 81 | 1015.5 |
| 20260505070320 | 74 | 82 | 0.0 | 1.7 | 0.00 | 0.01 | 0.01 | 81 | 1015.5 |
| 20260505065818 | 74 | 82 | 0.0 | 2.6 | 0.00 | 0.01 | 0.01 | 80 | 1015.3 |
| 20260505065316 | 74 | 82 | 0.9 | 3.5 | 0.00 | 0.01 | 0.01 | 80 | 1015.3 |
| 20260505064817 | 75 | 82 | 0.0 | 3.5 | 0.00 | 0.01 | 0.01 | 80 | 1015.3 |
| 20260505064249 | 75 | 83 | 0.0 | 4.3 | 0.00 | 0.01 | 0.01 | 79 | 1015.2 |
| 20260505063956 | 75 | 83 | 0.0 | 4.3 | 0.00 | 0.01 | 0.01 | 79 | 1015.4 |
| 20260505063451 | 75 | 68 | 0.9 | 4.3 | 0.00 | 0.01 | 0.01 | 78 | 1015.4 |
| 20260505062703 | 75 | 68 | 1.7 | 4.3 | 0.00 | 0.01 | 0.01 | 78 | 1015.5 |
| 20260505062145 | 76 | 60 | 0.9 | 3.5 | 0.00 | 0.01 | 0.01 | 78 | 1015.4 |
| 20260505061645 | 76 | 46 | 0.9 | 2.6 | 0.00 | 0.01 | 0.01 | 77 | 1015.5 |
| 20260505061341 | 76 | 46 | 0.0 | 2.6 | 0.00 | 0.01 | 0.01 | 77 | 1015.4 |